Location: Tr�vern
(48.0333°N, 4.6000°W)
Time: 18:36:35
(UTC+00:00)

Okean 1 - Pass Details

Date: 14 July 2020
Orbit: 538 x 555 km, 82.5° (Epoch: 12 August)

Event Time Altitude Azimuth Distance (km) Brightness Sun altitude
Rises 01:52:22 0° 344° (NNW) 2,708 7.7 -17.6°
Reaches altitude 10° 01:54:36 10° 338° (NNW) 1,812 6.6 -17.5°
Maximum altitude 01:58:22 43° 267° (W) 771 3.8 -17.2°
Enters shadow 01:59:22 35° 228° (SW) 884 3.9 -17.2°
